UAL1909 MMVR-KIAH

Flight info

Callsign UAL1909
Flight time 1h 53m
Altitude 36000
Route DURIB1C DURIB UT61 AVALI UT48 MAM DCT CRP HTOWN3
Aircraft B738/M-SDE2E3FGHIRWXY/LB1

Departure

Time 2026-04-26 16:49
Airport General Heriberto Jara International Airport (MMVR)

Arrival

Time 2026-04-26 18:42
Airport George Bush Intercontinental Airport (KIAH)
Time Latitude Longitude Altitude Speed Heading
2026-04-26 16:24 19.14185 -96.18450 76 ft 0 kts 96°
2026-04-26 16:42 19.14185 -96.18451 76 ft 2 kts 96°
2026-04-26 16:42 19.14188 -96.18478 74 ft 4 kts 101°
2026-04-26 16:42 19.14194 -96.18506 66 ft 4 kts 105°
2026-04-26 16:43 19.14202 -96.18533 68 ft 3 kts 104°
2026-04-26 16:43 19.14202 -96.18536 68 ft 0 kts 104°
2026-04-26 16:44 19.14213 -96.18526 69 ft 6 kts 27°
2026-04-26 16:45 19.14320 -96.18513 71 ft 25 kts 340°
2026-04-26 16:45 19.14451 -96.18557 72 ft 21 kts 20°
2026-04-26 16:45 19.14542 -96.18556 64 ft 20 kts 351°
2026-04-26 16:45 19.14633 -96.18512 70 ft 8 kts 17°
2026-04-26 16:46 19.14686 -96.18536 64 ft 8 kts 333°
2026-04-26 16:46 19.14743 -96.18550 63 ft 8 kts 353°
2026-04-26 16:46 19.14800 -96.18558 67 ft 8 kts 353°
2026-04-26 16:46 19.14855 -96.18573 62 ft 8 kts 346°
2026-04-26 16:47 19.14912 -96.18583 63 ft 9 kts 351°
2026-04-26 16:47 19.14959 -96.18596 68 ft 4 kts 318°
2026-04-26 16:47 19.14959 -96.18614 63 ft 1 kts 259°
2026-04-26 16:47 19.14958 -96.18623 66 ft 2 kts 259°
2026-04-26 16:48 19.14955 -96.18634 63 ft 2 kts 258°
2026-04-26 16:48 19.14942 -96.18653 61 ft 8 kts 219°
2026-04-26 16:48 19.14844 -96.18684 69 ft 28 kts 191°
2026-04-26 16:48 19.14385 -96.18779 72 ft 113 kts 191°
2026-04-26 16:49 19.13351 -96.18999 242 ft 178 kts 192°
2026-04-26 16:49 19.12128 -96.19371 1127 ft 198 kts 197°
2026-04-26 16:49 19.10791 -96.19782 2114 ft 208 kts 191°
2026-04-26 16:49 19.09234 -96.19907 2605 ft 239 kts 178°
2026-04-26 16:50 19.07488 -96.20031 3092 ft 266 kts 193°
2026-04-26 16:50 19.05612 -96.20530 3666 ft 288 kts 192°
2026-04-26 16:50 19.03586 -96.20998 4260 ft 306 kts 191°
2026-04-26 16:50 19.01467 -96.21454 4817 ft 315 kts 191°
2026-04-26 16:51 18.99401 -96.22268 5386 ft 324 kts 214°
2026-04-26 16:51 18.97925 -96.24074 5959 ft 333 kts 243°
2026-04-26 16:51 18.97434 -96.26470 6551 ft 341 kts 271°
2026-04-26 16:51 18.98072 -96.28879 7132 ft 346 kts 299°
2026-04-26 16:52 18.99708 -96.30728 7758 ft 350 kts 327°
2026-04-26 16:52 19.01176 -96.31432 8160 ft 352 kts 345°
2026-04-26 16:52 19.04433 -96.31424 9013 ft 354 kts
2026-04-26 16:52 19.06888 -96.31071 9620 ft 356 kts
2026-04-26 16:53 19.09374 -96.30921 9791 ft 359 kts
2026-04-26 16:53 19.11885 -96.30989 9834 ft 362 kts 356°
2026-04-26 16:53 19.14352 -96.31205 10022 ft 357 kts 353°
2026-04-26 16:53 19.16806 -96.31498 10476 ft 355 kts 353°
2026-04-26 16:54 19.19264 -96.31825 10944 ft 357 kts 353°
2026-04-26 16:54 19.21728 -96.32163 11402 ft 356 kts 353°
2026-04-26 16:54 19.24189 -96.32500 11885 ft 357 kts 353°
2026-04-26 16:54 19.25848 -96.32726 12208 ft 358 kts 353°
2026-04-26 16:55 19.27652 -96.32971 12561 ft 358 kts 353°
2026-04-26 16:55 19.30116 -96.33326 13054 ft 357 kts 353°
2026-04-26 16:55 19.32569 -96.33705 13554 ft 356 kts 353°
2026-04-26 16:55 19.35019 -96.34085 14001 ft 356 kts 352°
2026-04-26 16:56 19.39474 -96.36306 14898 ft 367 kts 317°
2026-04-26 16:56 19.41154 -96.38376 15390 ft 374 kts 310°
2026-04-26 16:56 19.42764 -96.40570 15868 ft 380 kts 309°
2026-04-26 16:57 19.44380 -96.42807 16353 ft 384 kts 309°
2026-04-26 16:57 19.46002 -96.45037 16840 ft 387 kts 309°
2026-04-26 16:57 19.46694 -96.45983 17047 ft 388 kts 309°
2026-04-26 16:58 19.48363 -96.48247 17553 ft 390 kts 309°
2026-04-26 16:58 19.49474 -96.49748 17881 ft 392 kts 309°
2026-04-26 16:58 19.52281 -96.53526 18645 ft 395 kts 309°
2026-04-26 16:59 19.53985 -96.55817 19113 ft 397 kts 309°
2026-04-26 16:59 19.58057 -96.59677 20026 ft 398 kts 338°
2026-04-26 17:00 19.63459 -96.60471 21001 ft 400 kts
2026-04-26 17:00 19.69078 -96.60004 21988 ft 404 kts
2026-04-26 17:00 19.71885 -96.59764 22501 ft 406 kts
2026-04-26 17:01 19.74707 -96.59539 23010 ft 407 kts
2026-04-26 17:01 19.77497 -96.59330 23495 ft 408 kts
2026-04-26 17:01 19.80365 -96.59124 23942 ft 409 kts
2026-04-26 17:01 19.83174 -96.58924 24371 ft 409 kts
2026-04-26 17:02 19.86012 -96.58721 24824 ft 410 kts
2026-04-26 17:02 19.88853 -96.58763 25263 ft 408 kts 348°
2026-04-26 17:02 19.91537 -96.59669 25733 ft 405 kts 333°
2026-04-26 17:02 19.94057 -96.61008 26228 ft 404 kts 332°
2026-04-26 17:03 19.99380 -96.63946 27254 ft 403 kts 331°
2026-04-26 17:03 20.01872 -96.65306 27763 ft 403 kts 331°
2026-04-26 17:03 20.04369 -96.66654 28270 ft 402 kts 331°
2026-04-26 17:04 20.06863 -96.67992 28784 ft 400 kts 331°
2026-04-26 17:04 20.09344 -96.69320 29296 ft 399 kts 331°
2026-04-26 17:04 20.11821 -96.70645 29757 ft 400 kts 330°
2026-04-26 17:04 20.14340 -96.71995 29753 ft 411 kts 330°
2026-04-26 17:05 20.19697 -96.74494 29779 ft 432 kts 340°
2026-04-26 17:05 20.22670 -96.75179 29776 ft 444 kts 349°
2026-04-26 17:05 20.25753 -96.75589 29952 ft 447 kts 350°
2026-04-26 17:06 20.28826 -96.75961 30223 ft 441 kts 350°
2026-04-26 17:06 20.31843 -96.76322 30688 ft 434 kts 349°
2026-04-26 17:06 20.34834 -96.76694 31166 ft 430 kts 349°
2026-04-26 17:06 20.37788 -96.77073 31634 ft 427 kts 349°
2026-04-26 17:07 20.40726 -96.77460 32116 ft 423 kts 348°
2026-04-26 17:07 20.43634 -96.77847 32607 ft 419 kts 348°
2026-04-26 17:07 20.46516 -96.78232 33104 ft 416 kts 348°
2026-04-26 17:07 20.49375 -96.78615 33576 ft 414 kts 348°
2026-04-26 17:08 20.52204 -96.78995 33790 ft 417 kts 348°
2026-04-26 17:08 20.55125 -96.79387 34022 ft 419 kts 348°
2026-04-26 17:08 20.57986 -96.79770 34243 ft 421 kts 348°
2026-04-26 17:08 20.60942 -96.80165 34484 ft 423 kts 348°
2026-04-26 17:09 20.63865 -96.80556 34707 ft 424 kts 348°
2026-04-26 17:09 20.64811 -96.80683 34778 ft 425 kts 348°
2026-04-26 17:09 20.69689 -96.81377 35162 ft 426 kts 348°
2026-04-26 17:09 20.72633 -96.81802 35387 ft 427 kts 348°
2026-04-26 17:10 20.75582 -96.82215 35630 ft 428 kts 348°
2026-04-26 17:10 20.78547 -96.82615 35808 ft 430 kts 348°
2026-04-26 17:10 20.84566 -96.83417 35814 ft 440 kts 348°
2026-04-26 17:11 20.90653 -96.84226 35810 ft 440 kts 348°
2026-04-26 17:11 20.96731 -96.85040 35808 ft 439 kts 348°
2026-04-26 17:12 21.05817 -96.86262 35813 ft 438 kts 348°
2026-04-26 17:13 21.14887 -96.87484 35814 ft 437 kts 348°
2026-04-26 17:14 21.22910 -96.88567 35816 ft 436 kts 348°
2026-04-26 17:14 21.31917 -96.89784 35814 ft 435 kts 348°
2026-04-26 17:15 21.40911 -96.91001 35815 ft 434 kts 348°
2026-04-26 17:16 21.46905 -96.91812 35815 ft 434 kts 348°
2026-04-26 17:16 21.52889 -96.92626 35814 ft 433 kts 348°
2026-04-26 17:17 21.58869 -96.93451 35816 ft 434 kts 348°
2026-04-26 17:17 21.64856 -96.94279 35819 ft 434 kts 348°
2026-04-26 17:18 21.70849 -96.95108 35819 ft 434 kts 347°
2026-04-26 17:18 21.76840 -96.95936 35820 ft 434 kts 347°
2026-04-26 17:19 21.85831 -96.97170 35819 ft 434 kts 348°
2026-04-26 17:19 21.91827 -96.97990 35823 ft 434 kts 348°
2026-04-26 17:20 21.96813 -96.98674 35823 ft 434 kts 348°
2026-04-26 17:20 22.03787 -96.99631 35828 ft 434 kts 347°
2026-04-26 17:21 22.09781 -97.00455 35821 ft 434 kts 347°
2026-04-26 17:21 22.15768 -97.01279 35818 ft 434 kts 347°
2026-04-26 17:22 22.21749 -97.02102 35822 ft 433 kts 347°
2026-04-26 17:22 22.27721 -97.02925 35826 ft 433 kts 347°
2026-04-26 17:23 22.33693 -97.03749 35835 ft 432 kts 347°
2026-04-26 17:23 22.39659 -97.04573 35825 ft 432 kts 347°
2026-04-26 17:24 22.45616 -97.05396 35828 ft 431 kts 347°
2026-04-26 17:24 22.51568 -97.06219 35829 ft 431 kts 347°
2026-04-26 17:25 22.57518 -97.07043 35830 ft 431 kts 347°
2026-04-26 17:25 22.63467 -97.07867 35852 ft 431 kts 347°
2026-04-26 17:26 22.69412 -97.08691 35836 ft 431 kts 347°
2026-04-26 17:26 22.75362 -97.09517 35828 ft 431 kts 347°
2026-04-26 17:27 22.81303 -97.10342 35828 ft 431 kts 347°
2026-04-26 17:27 22.87245 -97.11168 35831 ft 430 kts 347°
2026-04-26 17:28 22.93183 -97.11994 35831 ft 430 kts 347°
2026-04-26 17:28 22.99124 -97.12822 35832 ft 430 kts 347°
2026-04-26 17:29 23.04062 -97.13511 35830 ft 430 kts 347°
2026-04-26 17:29 23.10998 -97.14478 35830 ft 430 kts 347°
2026-04-26 17:30 23.16938 -97.15307 35833 ft 430 kts 347°
2026-04-26 17:30 23.22875 -97.16134 35831 ft 430 kts 347°
2026-04-26 17:31 23.28810 -97.16961 35842 ft 430 kts 347°
2026-04-26 17:31 23.34750 -97.17790 35837 ft 430 kts 347°
2026-04-26 17:32 23.40655 -97.18615 35829 ft 431 kts 347°
2026-04-26 17:32 23.46635 -97.19451 35830 ft 430 kts 347°
2026-04-26 17:33 23.52537 -97.20277 35832 ft 430 kts 347°
2026-04-26 17:34 23.61450 -97.21526 35842 ft 431 kts 346°
2026-04-26 17:34 23.67391 -97.22360 35833 ft 431 kts 346°
2026-04-26 17:35 23.73333 -97.23194 35833 ft 430 kts 346°
2026-04-26 17:35 23.79272 -97.24029 35835 ft 430 kts 346°
2026-04-26 17:36 23.85210 -97.24864 35834 ft 430 kts 346°
2026-04-26 17:36 23.91147 -97.25700 35848 ft 430 kts 346°
2026-04-26 17:37 23.97075 -97.26536 35833 ft 430 kts 346°
2026-04-26 17:37 24.03012 -97.27373 35829 ft 430 kts 346°
2026-04-26 17:38 24.11906 -97.28629 35836 ft 430 kts 346°
2026-04-26 17:38 24.17836 -97.29468 35843 ft 429 kts 346°
2026-04-26 17:39 24.23758 -97.30306 35837 ft 430 kts 346°
2026-04-26 17:39 24.29695 -97.31147 35832 ft 430 kts 346°
2026-04-26 17:40 24.34623 -97.31846 35832 ft 430 kts 346°
2026-04-26 17:40 24.41518 -97.32824 35832 ft 430 kts 346°
2026-04-26 17:41 24.47489 -97.33673 35829 ft 430 kts 346°
2026-04-26 17:41 24.53378 -97.34511 35830 ft 429 kts 346°
2026-04-26 17:42 24.59297 -97.35363 35831 ft 429 kts 346°
2026-04-26 17:42 24.65222 -97.36222 35827 ft 429 kts 346°
2026-04-26 17:43 24.71142 -97.37079 35828 ft 429 kts 346°
2026-04-26 17:43 24.77062 -97.37937 35831 ft 429 kts 346°
2026-04-26 17:44 24.82987 -97.38796 35843 ft 429 kts 346°
2026-04-26 17:44 24.88910 -97.39655 35839 ft 430 kts 346°
2026-04-26 17:45 24.94838 -97.40517 35827 ft 430 kts 346°
2026-04-26 17:45 25.00769 -97.41379 35834 ft 430 kts 346°
2026-04-26 17:46 25.06698 -97.42232 35834 ft 430 kts 346°
2026-04-26 17:46 25.12625 -97.43077 35833 ft 430 kts 346°
2026-04-26 17:47 25.16555 -97.43639 35849 ft 430 kts 346°
2026-04-26 17:47 25.24485 -97.44775 35836 ft 430 kts 346°
2026-04-26 17:48 25.30414 -97.45626 35836 ft 430 kts 346°
2026-04-26 17:48 25.36344 -97.46478 35839 ft 429 kts 346°
2026-04-26 17:49 25.42266 -97.47334 35839 ft 429 kts 346°
2026-04-26 17:49 25.48185 -97.48194 35848 ft 429 kts 346°
2026-04-26 17:50 25.54112 -97.49055 35839 ft 429 kts 346°
2026-04-26 17:50 25.60037 -97.49916 35837 ft 429 kts 346°
2026-04-26 17:51 25.65964 -97.50778 35853 ft 430 kts 346°
2026-04-26 17:51 25.71887 -97.51640 35858 ft 429 kts 346°
2026-04-26 17:52 25.77826 -97.52422 35865 ft 434 kts 350°
2026-04-26 17:52 25.83916 -97.52279 35862 ft 439 kts 355°
2026-04-26 17:53 25.90022 -97.51985 35854 ft 439 kts 355°
2026-04-26 17:54 25.99129 -97.51600 35850 ft 438 kts 354°
2026-04-26 17:54 26.05224 -97.51373 35850 ft 438 kts 354°
2026-04-26 17:55 26.11320 -97.51152 35855 ft 439 kts 354°
2026-04-26 17:55 26.17422 -97.50930 35854 ft 439 kts 354°
2026-04-26 17:56 26.23518 -97.50707 35857 ft 439 kts 354°
2026-04-26 17:57 26.35737 -97.50259 35853 ft 439 kts 354°
2026-04-26 17:57 26.41853 -97.50035 35860 ft 440 kts 354°
2026-04-26 17:58 26.54119 -97.49583 35852 ft 441 kts 354°
2026-04-26 17:59 26.63319 -97.49244 35849 ft 441 kts 354°
2026-04-26 17:59 26.69452 -97.49017 35865 ft 441 kts 354°
2026-04-26 18:00 26.75586 -97.48791 35856 ft 442 kts 354°
2026-04-26 18:00 26.80697 -97.48602 35851 ft 442 kts 354°
2026-04-26 18:01 26.87832 -97.48337 35853 ft 442 kts 354°
2026-04-26 18:01 26.93974 -97.48109 35853 ft 442 kts 354°
2026-04-26 18:02 26.98082 -97.47957 35873 ft 442 kts 353°
2026-04-26 18:02 27.05268 -97.47690 35852 ft 442 kts 353°
2026-04-26 18:03 27.11425 -97.47461 35848 ft 442 kts 353°
2026-04-26 18:03 27.17539 -97.47233 35853 ft 442 kts 353°
2026-04-26 18:04 27.23689 -97.47004 35853 ft 442 kts 353°
2026-04-26 18:05 27.32923 -97.46659 35863 ft 443 kts 353°
2026-04-26 18:05 27.39087 -97.46429 35855 ft 443 kts 353°
2026-04-26 18:06 27.45245 -97.46198 35871 ft 443 kts 353°
2026-04-26 18:06 27.51400 -97.45968 35876 ft 442 kts 353°
2026-04-26 18:07 27.57549 -97.45737 35874 ft 442 kts 353°
2026-04-26 18:07 27.63693 -97.45506 35876 ft 442 kts 353°
2026-04-26 18:08 27.69835 -97.45275 35877 ft 442 kts 353°
2026-04-26 18:08 27.75975 -97.45044 35876 ft 441 kts 353°
2026-04-26 18:09 27.82118 -97.44813 35876 ft 441 kts 353°
2026-04-26 18:09 27.88265 -97.44497 35870 ft 449 kts
2026-04-26 18:09 27.91314 -97.43451 35885 ft 469 kts 17°
2026-04-26 18:10 27.94120 -97.41439 35879 ft 484 kts 29°
2026-04-26 18:10 27.99400 -97.36649 35870 ft 488 kts 31°
2026-04-26 18:11 28.04666 -97.31779 35805 ft 489 kts 31°
2026-04-26 18:11 28.07316 -97.29364 35681 ft 488 kts 30°
2026-04-26 18:11 28.09956 -97.26975 35559 ft 484 kts 30°
2026-04-26 18:11 28.12587 -97.24606 35418 ft 483 kts 30°
2026-04-26 18:12 28.15227 -97.22238 35153 ft 485 kts 30°
2026-04-26 18:12 28.17882 -97.19857 34848 ft 487 kts 30°
2026-04-26 18:12 28.20524 -97.17483 34535 ft 483 kts 30°
2026-04-26 18:12 28.23141 -97.15122 34167 ft 477 kts 30°
2026-04-26 18:13 28.25718 -97.12796 33736 ft 472 kts 30°
2026-04-26 18:13 28.28238 -97.10521 33245 ft 466 kts 30°
2026-04-26 18:13 28.30762 -97.08243 32722 ft 462 kts 31°
2026-04-26 18:13 28.32455 -97.06716 32376 ft 459 kts 31°
2026-04-26 18:14 28.35741 -97.03749 31715 ft 453 kts 31°
2026-04-26 18:14 28.38200 -97.01527 31204 ft 450 kts 31°
2026-04-26 18:14 28.40642 -96.99320 30701 ft 447 kts 31°
2026-04-26 18:14 28.43067 -96.97126 30220 ft 444 kts 32°
2026-04-26 18:15 28.45474 -96.94947 29710 ft 441 kts 32°
2026-04-26 18:15 28.47866 -96.92779 29153 ft 439 kts 32°
2026-04-26 18:15 28.50251 -96.90618 28610 ft 437 kts 32°
2026-04-26 18:15 28.52621 -96.88470 28067 ft 435 kts 32°
2026-04-26 18:16 28.54991 -96.86321 27532 ft 435 kts 32°
2026-04-26 18:16 28.59705 -96.82041 26498 ft 432 kts 32°
2026-04-26 18:16 28.62050 -96.79909 25991 ft 430 kts 32°
2026-04-26 18:17 28.64384 -96.77786 25495 ft 429 kts 32°
2026-04-26 18:17 28.66705 -96.75674 25005 ft 427 kts 32°
2026-04-26 18:17 28.69020 -96.73567 24525 ft 425 kts 32°
2026-04-26 18:17 28.71323 -96.71468 24128 ft 421 kts 32°
2026-04-26 18:18 28.73576 -96.69409 24008 ft 409 kts 32°
2026-04-26 18:18 28.75764 -96.67408 23953 ft 397 kts 32°
2026-04-26 18:18 28.77896 -96.65461 23951 ft 392 kts 32°
2026-04-26 18:18 28.80040 -96.63509 23975 ft 396 kts 32°
2026-04-26 18:19 28.82240 -96.61592 23946 ft 397 kts 25°
2026-04-26 18:19 28.84706 -96.60350 23969 ft 384 kts 13°
2026-04-26 18:19 28.87221 -96.59327 23948 ft 384 kts 12°
2026-04-26 18:19 28.89747 -96.58300 23791 ft 387 kts 13°
2026-04-26 18:20 28.92273 -96.57259 23484 ft 385 kts 13°
2026-04-26 18:20 28.94787 -96.56209 23014 ft 384 kts 13°
2026-04-26 18:20 28.97296 -96.55153 22552 ft 384 kts 14°
2026-04-26 18:20 28.98955 -96.54451 22236 ft 384 kts 14°
2026-04-26 18:21 29.02289 -96.53036 21617 ft 381 kts 14°
2026-04-26 18:21 29.04776 -96.51978 21149 ft 380 kts 14°
2026-04-26 18:21 29.07249 -96.50926 20680 ft 379 kts 14°
2026-04-26 18:21 29.09723 -96.49873 20222 ft 378 kts 15°
2026-04-26 18:22 29.12186 -96.48824 19786 ft 377 kts 15°
2026-04-26 18:22 29.14643 -96.47777 19337 ft 376 kts 15°
2026-04-26 18:22 29.17093 -96.46733 18903 ft 375 kts 15°
2026-04-26 18:22 29.19532 -96.45691 18483 ft 373 kts 15°
2026-04-26 18:23 29.21960 -96.44656 18034 ft 372 kts 15°
2026-04-26 18:23 29.24379 -96.43623 17555 ft 370 kts 16°
2026-04-26 18:23 29.26785 -96.42596 17066 ft 368 kts 16°
2026-04-26 18:23 29.29177 -96.41574 16595 ft 366 kts 16°
2026-04-26 18:24 29.31541 -96.40474 16128 ft 367 kts 21°
2026-04-26 18:24 29.33801 -96.39214 15667 ft 366 kts 23°
2026-04-26 18:24 29.36062 -96.37891 15210 ft 364 kts 24°
2026-04-26 18:24 29.38316 -96.36576 14763 ft 362 kts 24°
2026-04-26 18:25 29.40564 -96.35287 14326 ft 361 kts 23°
2026-04-26 18:25 29.42803 -96.34019 14012 ft 355 kts 23°
2026-04-26 18:25 29.44979 -96.32789 13929 ft 342 kts 23°
2026-04-26 18:25 29.46951 -96.31356 13888 ft 334 kts 41°
2026-04-26 18:26 29.48415 -96.29346 13906 ft 324 kts 50°
2026-04-26 18:26 29.49763 -96.27277 13901 ft 323 kts 51°
2026-04-26 18:26 29.51110 -96.25215 13907 ft 324 kts 50°
2026-04-26 18:26 29.52472 -96.23157 13903 ft 324 kts 50°
2026-04-26 18:27 29.53844 -96.21097 13977 ft 325 kts 50°
2026-04-26 18:27 29.55281 -96.19072 13704 ft 327 kts 44°
2026-04-26 18:27 29.56888 -96.17264 13579 ft 321 kts 40°
2026-04-26 18:27 29.58527 -96.15550 13282 ft 317 kts 39°
2026-04-26 18:28 29.60151 -96.13861 12835 ft 314 kts 40°
2026-04-26 18:28 29.61755 -96.12173 12406 ft 311 kts 40°
2026-04-26 18:28 29.63335 -96.10491 11978 ft 309 kts 40°
2026-04-26 18:28 29.64897 -96.08814 11564 ft 306 kts 40°
2026-04-26 18:29 29.66439 -96.07149 11147 ft 303 kts 41°
2026-04-26 18:29 29.67972 -96.05493 10721 ft 302 kts 42°
2026-04-26 18:29 29.69498 -96.03839 10281 ft 301 kts 43°
2026-04-26 18:29 29.71002 -96.02209 9896 ft 292 kts 43°
2026-04-26 18:30 29.72493 -96.00668 9424 ft 285 kts 37°
2026-04-26 18:30 29.74094 -95.99372 8952 ft 278 kts 33°
2026-04-26 18:30 29.75695 -95.98168 8520 ft 271 kts 33°
2026-04-26 18:30 29.77255 -95.96998 8070 ft 264 kts 33°
2026-04-26 18:31 29.78767 -95.95849 7613 ft 258 kts 34°
2026-04-26 18:31 29.80226 -95.94728 7181 ft 253 kts 34°
2026-04-26 18:31 29.81686 -95.93596 7041 ft 248 kts 35°
2026-04-26 18:31 29.83116 -95.92483 7012 ft 250 kts 35°
2026-04-26 18:32 29.84567 -95.91350 7007 ft 254 kts 35°
2026-04-26 18:32 29.86004 -95.90228 7002 ft 252 kts 35°
2026-04-26 18:32 29.87453 -95.89095 6994 ft 250 kts 35°
2026-04-26 18:32 29.88896 -95.87967 6999 ft 251 kts 35°
2026-04-26 18:33 29.90346 -95.86832 6993 ft 252 kts 35°
2026-04-26 18:33 29.91793 -95.85700 6984 ft 251 kts 35°
2026-04-26 18:33 29.93239 -95.84568 6978 ft 251 kts 35°
2026-04-26 18:33 29.94683 -95.83437 6967 ft 251 kts 35°
2026-04-26 18:34 29.96128 -95.82305 6965 ft 251 kts 35°
2026-04-26 18:34 29.97529 -95.81104 6949 ft 251 kts 48°
2026-04-26 18:34 29.98355 -95.79383 6967 ft 245 kts 73°
2026-04-26 18:34 29.98938 -95.77534 6964 ft 242 kts 73°
2026-04-26 18:35 29.99310 -95.75699 6947 ft 230 kts 93°
2026-04-26 18:35 29.99284 -95.73859 6959 ft 231 kts 94°
2026-04-26 18:35 29.99275 -95.72000 6910 ft 234 kts 94°
2026-04-26 18:35 29.99275 -95.70126 6686 ft 232 kts 93°
2026-04-26 18:36 29.99278 -95.68276 6302 ft 229 kts 93°
2026-04-26 18:36 29.99281 -95.66471 5896 ft 222 kts 94°
2026-04-26 18:36 29.99286 -95.64713 5453 ft 218 kts 94°
2026-04-26 18:36 29.99289 -95.62967 4989 ft 217 kts 94°
2026-04-26 18:37 29.99295 -95.61239 4533 ft 215 kts 95°
2026-04-26 18:37 29.99299 -95.59518 4057 ft 214 kts 94°
2026-04-26 18:37 29.99305 -95.57844 3560 ft 203 kts 93°
2026-04-26 18:37 29.99310 -95.56252 3143 ft 192 kts 95°
2026-04-26 18:38 29.99315 -95.54767 3040 ft 181 kts 95°
2026-04-26 18:38 29.99317 -95.53320 2929 ft 182 kts 94°
2026-04-26 18:38 29.99320 -95.51873 2693 ft 174 kts 95°
2026-04-26 18:38 29.99324 -95.50523 2414 ft 166 kts 94°
2026-04-26 18:39 29.99326 -95.49198 2149 ft 163 kts 95°
2026-04-26 18:39 29.99328 -95.47909 2033 ft 160 kts 96°
2026-04-26 18:39 29.99327 -95.46587 1847 ft 168 kts 94°
2026-04-26 18:39 29.99330 -95.45274 1640 ft 164 kts 95°
2026-04-26 18:40 29.99334 -95.43979 1422 ft 158 kts 95°
2026-04-26 18:40 29.99337 -95.42731 1216 ft 154 kts 95°
2026-04-26 18:40 29.99337 -95.41466 1094 ft 162 kts 96°
2026-04-26 18:40 29.99337 -95.40137 1040 ft 178 kts 94°
2026-04-26 18:41 29.99328 -95.38644 819 ft 190 kts 92°
2026-04-26 18:41 29.99323 -95.37149 484 ft 179 kts 89°
2026-04-26 18:41 29.99357 -95.35768 205 ft 163 kts 92°
2026-04-26 18:41 29.99343 -95.34567 109 ft 137 kts 94°
2026-04-26 18:42 29.99340 -95.33693 106 ft 78 kts 89°
2026-04-26 18:42 29.99316 -95.33322 107 ft 16 kts 111°
2026-04-26 18:42 29.99274 -95.33217 107 ft 18 kts 118°
2026-04-26 18:42 29.99251 -95.33172 106 ft 2 kts 123°
2026-04-26 18:43 29.99243 -95.33159 106 ft 3 kts 123°
2026-04-26 18:43 29.99210 -95.33125 106 ft 7 kts 137°
2026-04-26 18:43 29.99152 -95.33043 105 ft 18 kts 146°
2026-04-26 18:43 29.99013 -95.33026 106 ft 23 kts 180°
2026-04-26 18:44 29.98840 -95.33025 106 ft 27 kts 179°
2026-04-26 18:44 29.98659 -95.33024 106 ft 24 kts 180°
2026-04-26 18:44 29.98635 -95.33024 106 ft 0 kts 182°
2026-04-26 18:46 29.98634 -95.33024 106 ft 0 kts 182°
2026-04-26 18:46 29.98631 -95.33024 106 ft 1 kts 182°
2026-04-26 18:46 29.98570 -95.33027 106 ft 27 kts 181°
2026-04-26 18:47 29.98548 -95.33123 106 ft 14 kts 284°
2026-04-26 18:47 29.98551 -95.33152 106 ft 0 kts 272°